Regional Weather Roundup
Issued by NWS

Home | Current Version | Previous Version | Graphics & Text | Print | Product List | Glossary On
Versions: 1 2 3 4 5 6 7 8 9 10 11 12 13 14 15 16 17 18 19 20 21 22 23 24 25 26 27 28 29 30 31 32 33 34 35 36 37 38 39 40 41 42 43 44 45 46 47 48 49 50
000
ASUS44 KMEG 010510
RWRTN
TENNESSEE HOURLY STATE WEATHER ROUNDUP
NATIONAL WEATHER SERVICE MEMPHIS TN
1200 AM CDT SAT AUG 01 2015

TNZ002-004-019-021-049-052-054-088>092-010600-
WEST TENNESSEE

CITY           SKY/WX    TMP DP  RH WIND       PRES   REMARKS
MEMPHIS INTL   PTCLDY    82  65  56 NE6       30.05S
NWS MEMPHIS      N/A     74 N/A N/A MISG        N/A
JACKSON        CLEAR     70  66  87 CALM      30.05F
DYERSBURG        N/A    N/A N/A N/A MISG        N/A
PARIS          CLEAR     66  64  94 CALM      30.07S
LEXINGTON      CLEAR     68  68 100 CALM      30.05S
$$

TNZ008-025-027-028-033-062-065-066-010600-
NORTH MIDDLE TENNESSEE

CITY           SKY/WX    TMP DP  RH WIND       PRES   REMARKS
NASHVILLE      CLEAR     74  60  61 CALM      30.05S
CLARKSVILLE    CLEAR     71  68  90 CALM      30.06R
SMYRNA         CLEAR     67  64  90 CALM      30.05S
CROSSVILLE     CLEAR     65  59  81 CALM      30.10S
$$

TNZ061-075-076-078-094-096-097-010600-
SOUTH MIDDLE TENNESSEE

CITY           SKY/WX    TMP DP  RH WIND       PRES   REMARKS
FAYETTEVILLE   CLEAR     68  59  73 N3        30.05S
TULLAHOMA      CLEAR     64  61  88 CALM      30.07S
WINCHESTER     CLEAR     63  61  94 CALM      30.06S
MCMINNVILLE    CLEAR     64  64 100 CALM      30.07R
COLUMBIA       CLEAR     68  68 100 CALM      30.04S
SHELBYVILLE    CLEAR     66  64  94 E3        30.06S
$$

TNZ017-018-042-046-047-010600-
NORTHEAST TENNESSEE

CITY           SKY/WX    TMP DP  RH WIND       PRES   REMARKS
TRI CITIES     CLEAR     62  59  90 CALM      30.07S
ELIZABETHTON   CLEAR     57  55  94 CALM      30.09S
$$

TNZ012-013-036-069-073-074-010600-
CENTRAL EAST TENNESSEE

CITY           SKY/WX    TMP DP  RH WIND       PRES   REMARKS
KNOXVILLE      CLEAR     70  63  78 CALM      30.04R
OAK RIDGE      CLEAR     68  63  84 CALM      30.07R
GATLINBURG     CLEAR     64  61  88 CALM      30.05S
MORRISTOWN     CLEAR     66  63  88 CALM      30.07S
$$

TNZ083-085-099-010600-
SOUTHEAST TENNESSEE

CITY           SKY/WX    TMP DP  RH WIND       PRES   REMARKS
CHATTANOOGA    CLEAR     72  62  71 CALM      30.03R
$$

SKY/WX REPORTED AS FAIR MEANS FEW OR NO CLOUDS BELOW
12 THOUSAND FEET.




USA.gov is the U.S. government's official web portal to all federal, state and local government web resources and services.